GLOBALSTAR M053 [-]

Last updated on Thu Dec 28 2023 00:02:57 GMT+0000 (Coordinated Universal Time)

1 25886U 99043D 23361.29029477 -.00000058 00000+0 29800-3 0 9994 2 25886 52.0013 351.8562 0003275 250.2544 210.8782 11.27652675 58767
UTC large
Height (km)
Speed (km/s)
/
Latitude / Longitude
Inclination (degrees)
Orbital Period (minutes)
Azimuth
Elevation
Range (km)
Doppler Factor

Next 0 passes for location: London (51.5072 / 0.1276)

Sorry there are no passes over London.